Hauptseite
METAR-TAF:

METAR-TAF

Flughäfen :

RAF Boulmer

Boulmer, England

Breite: 55-25-19N, Länge: 1-36-12W, Höhe: 24 m

Beobachtung

Neuester Wetterbericht von vor 19 Minuten, um 06:50 UTC
Wind 19 kt aus Nordwest, Böen bis zu 29 kt
Temperatur 6°C
Luftfeuchtigkeit 70%
Luftdruck 999 hPa
Sichtweite 10 km oder mehr

METAR: EGQM 090650Z AUTO 31019G29KT 9999 FEW036/// 06/01 Q0999

Zeit: 07:09 (07:09 UTC)


TAF: fehlend

Wetterbeobachtungen und Prognosen von mehr als 4000 Flughäfen (METAR und TAF Bericht).

Die verfügbaren Stationen werden durch gelbe und rote Markierungen auf der Karte dargestellt.

Führen Sie die Maus auf sie, um den Namen der Station zu sehen.

Darauf klicken, um die Beobachtung von Wetterbeobachtungen und Prognosen zu sehen.

Um die Karte zu ändern : klicken Sie auf den grünen Tasten mit einem schwarzen Kreuz Zum Vergrößern, auf den grünen Button mit einem Gedankenstrich zu verkleinern, oder auf die grünen Pfeile für benachbarte Karten.


METAR-TAF: